Flag for Cuba Weather past 2 weeks in Holguín, Cuba

Now
72 °F

Passing clouds.


Feels Like: 69 °F
Forecast: 72 / 84 °F
Wind: 3 mph from Southeast

Location: Holguin Civ / Mil


UV Index: 7 (High)

Visibility: N/A


Pressure: 29.98 "Hg

Humidity: 88%

Dew point: 68 °F

Location of HolguínLocation

Historic Weather in Holguín

°F

Holguín temperature yesterday

Maximum temperature yesterday: 91 °F (at 1:50 PM)
Minimum temperature yesterday: 70 °F (at 4:51 AM)
Average temperature yesterday: 76 °F

Past Weeks' High & Low Weather Summary

 TemperatureHumidityPressure
High95 °F (Apr 8, 1:50 PM)94% (Apr 12, 5:50 AM)30.15 "Hg (Apr 12, 5:50 AM)
Low68 °F (Apr 6, 4:50 AM)26% (Apr 12, 1:50 PM)29.83 "Hg (Apr 14, 4:50 PM)
Average79 °F68%29.98 "Hg
* Reported Apr 6 2:50 AM — Apr 21 2:50 AM, Holguín, Weather by CustomWeather, © 2014

Note: Actual official high and low records may vary slightly from our data, if they occured in-between our weather recording intervals... More about our weather records

Advertising

Historic Weather Conditions — Data for Previous 24 hours

 ConditionsComfort  
Time TempWeatherWind HumidityBarometerVisibility
2:50 AM
Apr 21
72 °FPassing clouds.3 mph88%29.98 "HgN/A
1:50 AM72 °FPassing clouds.1 mph94%29.98 "HgN/A
12:51 AM72 °FPassing clouds.3 mph94%30.01 "HgN/A
11:50 PM
Apr 20
72 °FPassing clouds.3 mph88%30.04 "HgN/A
10:52 PM72 °FPassing clouds.3 mph88%30.01 "HgN/A
9:50 PM73 °FPassing clouds.3 mph89%30.01 "HgN/A
8:50 PM73 °FMostly cloudy.8 mph89%30.01 "HgN/A
7:51 PM73 °FPartly sunny.5 mph89%30.01 "HgN/A
6:51 PM72 °FLight rain. More clouds than sun.8 mph94%30.01 "Hg5 mi
5:51 PM72 °FThunderstorms. More clouds than sun.6 mph94%30.01 "Hg5 mi
4:54 PM72 °FStrong thunderstorms. Mostly cloudy.12 mph94%29.98 "Hg0 mi
3:53 PM75 °FThunderstorms. Mostly cloudy.16 mph89%29.98 "Hg1 mi
2:50 PM90 °FPartly sunny.7 mph43%29.95 "Hg6 mi
1:50 PM91 °FScattered clouds.9 mph41%29.98 "Hg6 mi
12:50 PM88 °FPartly sunny.6 mph49%30.01 "Hg6 mi
11:50 AM88 °FPartly sunny.7 mph52%30.04 "Hg6 mi
10:50 AM84 °FScattered clouds.7 mph62%30.04 "Hg6 mi
9:50 AM77 °FScattered clouds.5 mph83%30.04 "Hg6 mi
8:56 AM73 °FFog.2 mph89%30.04 "Hg3 mi
7:50 AM70 °FFog.3 mph94%30.01 "Hg0 mi
6:51 AM70 °FFog.1 mph88%29.98 "Hg0 mi
5:50 AM70 °FFog.1 mph94%29.98 "Hg3 mi
4:51 AM70 °FFog.No wind94%29.98 "Hg3 mi
Weather by CustomWeather, © 2014

See weather overview